Simultaneous Nadir Overpasses (SNOs) Predictions

Prediction of SNOs between GOES-15 and NPP Satellite Orbit:

Table of predicted SNOs for the next 14.0 days since TLE Epoch: 2/10/2017
Index Date Time (GOES-15) GOES-15 Lat,Lon NPP Lat,Lon Distance(km) Time Diff (sec)
1 02/11/2017 10:26:28 -0.04,-135.41 -0.09,-135.27 16.08 27
2 02/13/2017 22:30:31 0.03,-135.40 -0.12,-136.03 72.90 80
3 02/14/2017 22:09:06 0.04,-135.39 0.88,-131.50 443.39 80
4 02/16/2017 10:30:53 -0.03,-135.40 0.26,-136.77 156.32 80
5 02/17/2017 10:14:48 -0.03,-135.39 -0.74,-132.24 359.79 80
6 02/18/2017 22:36:43 0.03,-135.37 -0.46,-137.53 246.36 80
7 02/19/2017 22:15:17 0.03,-135.36 0.54,-133.00 269.26 80
8 02/21/2017 10:37:04 -0.02,-135.35 0.66,-138.26 331.75 80
9 02/22/2017 10:20:59 -0.01,-135.34 -0.40,-133.74 183.65 80
10 02/23/2017 22:42:55 0.00,-135.31 -0.81,-139.03 423.46 80




NCC Satellite Simultaneous Nadir Overpasses (SNOs) Prediction Service
